Flag for India Weather past 2 weeks in Chennai, Tamil Nadu, India

Now
81 °F

Haze.


Feels Like: 86 °F
Forecast: 80 / 95 °F
Wind: No wind

Location: Madras / Minambakkam


UV Index: 10 (Very high)

Visibility: 3 mi


Pressure: 29.80 "Hg

Humidity: 84%

Dew point: 75 °F

Location of ChennaiLocation

Historic Weather in Chennai

°F

Chennai temperature yesterday

Maximum temperature yesterday: 95 °F (at 10:40 AM)
Minimum temperature yesterday: 81 °F (at 3:40 AM)
Average temperature yesterday: 87 °F

Past Weeks' High & Low Weather Summary

 TemperatureHumidityPressure
High99 °F (Apr 9, 12:40 PM)89% (Apr 4, 6:40 AM)29.95 "Hg (Apr 4, 6:40 AM)
Low77 °F (Apr 4, 6:40 AM)33% (Apr 11, 11:40 AM)29.65 "Hg (Apr 17, 4:40 PM)
Average87 °F69%29.81 "Hg
* Reported Apr 4 2:40 AM — Apr 19 2:40 AM, Chennai, Weather by CustomWeather, © 2014

Note: Actual official high and low records may vary slightly from our data, if they occured in-between our weather recording intervals... More about our weather records

Advertising

Historic Weather Conditions — Data for Previous 24 hours

 ConditionsComfort  
Time TempWeatherWind HumidityBarometerVisibility
2:40 AM
Apr 19
81 °FHaze.No wind84%29.80 "Hg3 mi
1:40 AM82 °FHaze.3 mph79%29.80 "Hg3 mi
12:40 AM82 °FHaze.No wind79%29.83 "Hg3 mi
11:40 PM
Apr 18
82 °FHaze.5 mph79%29.86 "Hg3 mi
10:40 PM84 °FHaze.5 mph79%29.86 "Hg3 mi
9:40 PM84 °FHaze.6 mph79%29.86 "Hg3 mi
8:40 PM84 °FHaze.9 mph74%29.83 "Hg3 mi
7:40 PM84 °FHaze.14 mph74%29.80 "Hg3 mi
6:40 PM84 °FPassing clouds.14 mph74%29.74 "Hg4 mi
5:40 PM88 °FPassing clouds.9 mph66%29.74 "Hg4 mi
4:40 PM90 °FPassing clouds.9 mph63%29.74 "Hg4 mi
3:40 PM91 °FPassing clouds.14 mph56%29.74 "Hg4 mi
2:40 PM95 °FPassing clouds.13 mph47%29.77 "Hg5 mi
1:40 PM95 °FPassing clouds.14 mph50%29.77 "Hg4 mi
12:40 PM95 °FPassing clouds.14 mph50%29.80 "Hg4 mi
11:40 AM93 °FPassing clouds.14 mph53%29.83 "Hg4 mi
10:40 AM95 °FPassing clouds.6 mph44%29.86 "Hg4 mi
9:40 AM91 °FPassing clouds.9 mph52%29.86 "Hg4 mi
7:40 AM84 °FHaze.12 mph79%29.83 "Hg2 mi
6:40 AM82 °FHaze.6 mph84%29.83 "Hg2 mi
5:40 AM81 °FHaze.5 mph89%29.80 "Hg3 mi
4:40 AM81 °FPassing clouds.3 mph84%29.77 "Hg4 mi
Weather by CustomWeather, © 2014

See weather overview